RH
35 27 42 61 89 63 50 27 22 44 42 28 23 18 18 20 22 25 29 36 42 50 53 57 57 52 51 61 70 75 73 74 56 51 45 47 53 63 72 76 74 69 60 59 62 56 56 70 62
32 26 55 86 96 61 55 27 38 44 36 22 18 15 17 22 22 22 32 36 41 45 46 43 40 41 52 65 72 71 67 78 75 68 65 56 56 63 76 79 82 85 84 69 76 71 70 59 52
24 49 64 89 95 67 40 27 39 35 19 17 22 17 23 20 22 23 36 33 39 42 38 39 42 44 47 60 74 70 62 54 77 73 73 65 70 72 74 85 93 98 92 84 87 94 85 48 43
38 62 74 96 94 92 48 41 86 35 44 24 18 26 18 18 20 26 34 31 33 36 33 42 42 45 50 56 58 62 60 58 80 70 69 68 56 55 78 91 95 96 99 96 96 96 71 52 39
52 57 96 92 92 93 71 47 27 22 31 22 17 16 19 19 19 24 33 32 33 35 36 45 42 46 53 55 60 64 64 69 74 74 73 67 66 73 71 74 67 59 56 68 77 82 79 54 40
50 80 90 84 89 95 62 48 24 20 24 33 18 18 20 21 19 19 30 32 32 34 49 48 33 45 56 53 58 62 58 62 69 74 68 57 58 68 64 60 64 65 70 78 86 91 68 59 52
61 71 88 86 92 93 86 64 20 15 33 30 22 20 21 24 21 21 27 33 30 29 42 59 52 50 63 53 54 60 47 46 56 62 54 85 81 69 67 66 73 73 68 62 68 79 69 65 65
64 69 73 86 100 100 87 54 23 15 19 22 21 20 22 27 26 24 26 29 28 28 23 42 60 66 70 51 50 50 52 51 46 49 61 75 82 59 57 61 66 56 55 72 78 78 66 68 60
66 71 77 81 92 90 80 45 18 16 18 21 24 17 17 26 27 25 40 29 21 21 21 21 44 58 62 37 34 37 49 34 31 62 68 61 64 66 59 55 51 64 73 77 80 83 62 54 48
65 64 77 89 81 91 81 58 15 17 16 18 20 22 20 24 27 23 36 26 23 21 19 20 29 51 42 33 36 34 21 21 23 30 37 45 54 50 50 45 40 54 46 60 93 76 64 46 48
60 73 72 93 87 70 76 60 29 17 15 15 16 20 23 32 32 25 27 34 24 24 25 22 19 30 50 38 36 37 36 34 39 58 45 48 48 42 43 34 34 32 38 43 47 40 39 34 39
73 70 70 90 97 72 92 54 52 17 13 16 15 18 21 27 38 49 30 30 29 32 34 27 23 17 23 39 41 38 38 38 32 52 40 45 59 51 32 27 40 52 33 29 24 21 16 15 32
70 70 64 60 75 80 97 80 67 55 12 14 16 17 20 28 51 55 31 25 30 34 35 28 28 18 17 33 39 38 40 53 45 51 56 40 26 25 24 21 30 40 22 19 15 11 6 6 11
76 65 73 68 88 86 94 88 94 72 33 13 15 16 16 21 25 27 21 24 24 27 31 29 27 22 19 39 26 30 33 38 32 35 42 51 39 25 23 22 19 19 16 10 10 9 5 6 17
69 69 79 71 88 87 93 98 98 99 77 28 14 15 15 17 19 20 20 22 20 21 24 39 28 25 20 51 45 28 34 40 41 37 49 28 27 25 24 21 15 17 20 9 7 7 5 7 34
85 96 88 76 83 96 98 93 96 86 99 48 15 14 16 15 14 17 18 22 22 19 19 31 38 32 33 23 35 32 38 35 28 28 26 34 28 20 24 26 19 17 11 10 9 5 4 5 26
97 100 95 87 92 94 96 98 92 97 98 57 31 12 14 18 16 17 16 20 22 19 16 18 31 36 35 47 46 26 22 36 30 18 25 50 57 29 22 21 21 17 12 11 12 12 5 5 12
96 98 96 96 93 89 96 93 97 97 98 73 55 33 18 13 16 19 15 18 20 19 18 16 22 38 39 42 64 54 20 21 24 25 17 23 33 22 21 19 17 19 11 12 11 14 16 6 10
76 83 84 82 78 84 88 90 96 98 96 89 74 71 41 29 13 18 16 15 20 22 19 17 15 27 40 53 46 70 53 27 18 20 29 32 26 24 14 11 14 14 14 13 11 13 16 11 9
73 77 78 91 87 94 94 97 96 97 99 96 88 88 78 30 12 14 16 16 16 20 24 19 17 17 30 34 66 43 62 58 58 29 39 31 26 23 23 12 16 21 13 12 12 14 14 17 8
73 76 79 86 95 98 94 97 97 96 96 99 96 65 86 55 32 18 13 14 17 18 20 24 20 15 17 30 37 64 53 61 72 38 28 37 36 25 18 20 13 15 15 11 10 9 12 15 13
76 75 75 72 76 97 94 96 96 96 96 97 88 76 75 89 66 52 19 14 13 15 16 19 20 20 17 22 26 46 54 58 59 50 34 31 28 21 14 15 18 9 9 10 11 11 9 9 11
72 74 78 74 68 78 89 94 96 88 96 94 89 87 78 60 83 70 55 48 18 13 13 15 17 19 21 16 25 29 44 55 58 48 38 26 31 22 12 14 14 17 21 8 8 11 11 10 9
63 68 79 82 70 76 89 88 93 92 92 85 90 87 94 62 55 72 88 89 62 18 17 14 15 17 20 24 20 26 33 56 63 54 47 34 31 32 12 10 10 10 16 16 12 9 10 11 12
46 68 71 82 76 87 70 77 84 83 82 72 72 74 84 71 53 57 73 94 79 85 72 27 16 12 16 20 24 24 28 38 69 74 73 46 41 29 20 22 11 9 10 11 15 20 17 11 13
19 42 58 62 63 52 93 58 73 72 62 52 50 54 53 70 43 58 61 76 87 98 96 94 47 20 13 15 22 22 30 32 57 78 61 60 59 52 31 27 32 15 12 11 10 14 13 9 13
13 17 39 58 49 48 76 62 52 58 50 48 54 64 84 83 88 55 68 84 96 97 95 91 90 30 25 24 14 21 23 29 26 48 67 57 78 49 25 30 40 33 23 18 11 10 11 11 9
18 15 20 38 53 29 21 25 23 33 62 55 87 83 93 97 96 94 83 78 87 83 98 95 87 88 45 34 38 40 38 34 30 29 44 62 71 54 48 22 23 44 29 22 16 10 8 9 11
16 18 15 38 36 34 20 14 14 26 31 70 90 85 88 88 94 93 98 96 95 83 93 98 96 95 93 95 86 44 56 41 38 30 38 61 71 78 75 66 47 36 54 43 31 25 14 8 9
13 15 18 17 23 20 22 14 10 29 27 48 87 76 76 83 87 96 95 98 96 97 99 99 91 92 94 93 96 96 86 47 36 32 30 41 63 69 78 82 87 73 60 68 52 34 16 18 18
Wind_Speed
8 7 7 8 8 15 12 12 16 15 16 12 16 15 19 17 17 17 17 17 18 18 18 16 15 16 16 13 9 10 12 13 13 12 11 10 9 8 7 7 8 7 9 10 10 10 11 12 13
7 6 7 6 4 20 15 16 17 16 17 13 16 16 17 16 17 17 16 17 17 17 17 17 18 19 19 17 14 12 12 13 13 12 11 10 10 8 7 7 6 6 10 11 11 12 13 14 15
6 6 10 11 15 19 17 20 18 13 18 18 18 16 14 14 16 17 16 17 16 15 17 19 19 21 21 21 18 16 15 15 14 14 14 14 12 10 9 8 7 9 12 13 11 13 14 14 15
4 6 13 12 16 21 19 16 14 17 15 16 18 16 14 14 17 16 16 18 16 15 17 18 19 20 20 22 23 20 17 16 18 17 17 17 16 15 16 17 17 16 16 15 13 16 17 15 15
3 8 10 14 14 18 15 16 16 17 17 16 17 16 16 14 17 16 17 18 15 15 16 18 18 20 20 22 23 23 23 22 21 20 19 19 20 22 23 22 21 18 17 16 15 15 16 13 13
2 7 5 9 8 11 16 18 15 17 16 17 18 16 16 14 15 16 16 17 16 14 16 16 16 18 20 21 22 22 22 21 20 19 18 18 19 20 19 18 17 16 16 16 14 13 16 15 14
2 3 6 6 1 17 15 12 13 16 16 17 18 18 16 14 13 16 15 16 15 15 15 15 14 17 18 19 20 20 21 21 20 18 17 16 19 18 17 18 16 15 13 13 14 16 13 15 14
2 1 7 9 16 24 17 14 12 13 15 16 19 20 18 15 11 14 15 15 14 15 15 13 13 15 16 17 17 20 19 20 19 18 17 17 17 17 17 18 16 15 13 12 13 15 15 13 16
5 3 7 11 20 18 18 16 15 14 16 15 14 12 16 17 12 11 14 14 14 15 15 14 13 14 15 17 17 19 19 18 18 17 16 15 15 15 14 14 13 15 16 14 14 18 16 13 16
6 6 6 10 9 19 19 16 17 15 17 19 18 10 12 18 12 10 12 12 12 13 14 15 14 13 17 16 16 17 19 18 18 17 16 15 14 13 12 14 15 15 16 16 18 20 18 17 15
9 7 4 8 12 20 20 15 17 14 16 13 17 15 13 18 14 12 12 11 10 13 12 13 14 13 12 16 17 16 16 18 19 18 16 15 14 14 13 17 18 20 18 17 19 20 18 18 18
9 6 4 8 9 16 17 16 15 13 16 16 12 17 18 16 14 10 11 11 10 12 11 11 12 13 12 13 14 16 15 16 16 17 18 16 14 14 16 19 20 20 18 17 19 20 20 20 21
12 8 8 5 8 12 15 13 16 11 13 14 14 13 15 16 15 12 10 11 12 10 10 11 11 12 13 12 13 15 14 14 15 15 14 14 14 15 16 20 19 20 18 17 18 19 20 22 23
9 12 9 10 10 15 15 10 20 17 11 13 14 14 15 16 17 15 12 10 12 11 10 11 12 12 12 11 12 12 14 15 16 16 16 14 14 14 15 18 19 18 17 15 16 17 19 21 24
13 12 12 11 12 18 17 15 14 13 13 10 13 13 14 16 14 13 13 12 12 11 10 11 13 14 12 10 11 12 13 14 13 15 14 14 14 14 14 15 17 17 17 15 15 17 17 19 23
16 15 15 15 13 21 15 18 14 17 13 13 11 14 14 15 14 13 12 12 13 12 11 11 12 13 13 10 10 12 13 13 12 14 15 14 14 13 12 12 13 15 15 14 15 17 18 18 19
21 19 18 16 15 13 13 20 17 23 17 15 12 12 14 14 13 12 13 14 12 12 11 11 11 11 12 12 9 11 11 13 13 13 14 12 11 13 12 10 11 13 14 13 15 16 16 17 17
22 22 19 17 18 15 12 13 23 17 17 17 14 13 14 15 15 17 16 14 13 12 11 10 11 11 10 11 10 9 10 12 11 11 12 11 10 11 11 10 9 11 14 12 13 14 13 15 16
28 28 25 21 17 22 22 24 18 19 20 16 15 12 12 14 17 16 15 14 13 11 11 10 8 9 8 9 10 9 11 9 10 10 11 10 9 10 10 10 9 8 9 10 11 10 11 12 15
29 27 25 20 18 22 21 22 21 21 22 20 16 11 12 12 15 14 15 13 12 12 11 11 11 11 8 6 6 8 9 11 8 8 10 10 10 10 10 10 8 8 7 7 7 8 9 9 12
29 28 26 23 22 19 18 23 28 24 24 23 17 11 12 15 14 14 13 14 13 12 12 11 11 10 9 8 5 6 7 7 6 6 7 9 9 9 10 9 9 8 8 8 8 7 7 9 9
31 30 28 28 28 23 21 12 25 26 23 22 17 13 11 14 14 11 13 16 15 15 13 12 11 11 10 9 9 9 7 8 7 6 7 7 8 8 9 10 9 9 8 7 7 7 7 8 10
32 33 31 31 29 27 25 15 30 29 28 15 15 15 13 13 14 13 15 14 13 15 15 14 12 11 11 10 9 9 9 9 10 7 6 8 8 8 8 9 10 10 10 8 7 8 8 8 9
36 36 34 32 33 29 25 19 20 14 21 21 19 18 14 16 16 15 17 13 13 13 14 13 12 12 12 12 12 9 10 11 10 8 7 7 9 10 11 10 9 9 9 10 10 9 9 9 9
41 38 38 36 36 32 28 22 14 15 17 16 17 21 20 24 21 20 16 16 15 14 13 12 14 14 15 14 14 13 11 13 13 13 10 9 7 9 13 12 12 11 10 9 10 11 10 11 10
41 40 41 41 40 33 28 30 25 21 20 18 17 20 23 22 21 21 21 18 21 24 12 14 12 15 15 15 15 15 14 14 15 15 13 11 12 11 12 13 13 13 12 11 10 10 11 12 12
41 43 40 40 37 35 36 29 27 24 23 20 16 19 19 21 20 22 21 17 20 18 15 13 15 15 15 15 15 16 15 15 15 17 18 16 14 13 13 13 13 13 12 13 13 13 12 13 13
40 39 41 43 41 37 36 34 27 24 24 22 18 20 22 21 25 26 27 25 24 20 21 19 17 16 16 14 16 18 18 16 17 16 20 18 16 14 13 12 13 14 14 12 13 14 14 13 13
43 42 41 43 41 37 36 32 23 22 24 22 24 21 21 20 20 26 30 34 26 24 25 21 24 19 16 18 17 20 19 20 19 20 18 18 18 18 16 15 13 14 15 14 14 15 15 15 15
40 42 41 41 43 40 37 33 25 23 23 23 24 22 25 24 22 25 26 29 28 29 28 23 24 21 19 19 25 22 23 25 24 24 24 21 21 19 18 19 17 17 16 15 15 15 16 16 17
Wind_Direction
355 351 354 3 30 168 149 139 120 119 109 112 112 106 105 107 104 95 89 84 84 86 86 85 83 76 72 69 82 105 123 129 134 136 143 132 122 117 113 120 121 118 133 132 135 131 129 125 128
353 337 350 351 105 165 156 135 121 126 116 115 111 108 108 108 104 99 93 88 86 89 89 84 79 73 67 67 77 98 116 122 126 130 127 112 104 104 100 92 98 124 135 136 140 136 127 125 126
17 327 348 334 137 149 141 133 114 122 122 121 114 110 106 113 105 101 95 87 87 92 91 86 79 72 67 68 77 91 110 108 112 111 104 93 89 88 90 93 113 119 132 136 138 136 129 115 124
26 348 347 84 133 141 131 140 128 124 121 121 119 117 108 103 100 95 92 87 86 89 91 88 83 81 76 73 78 88 98 97 101 100 99 92 89 92 99 107 112 107 111 122 112 115 114 116 122
1 18 30 35 96 153 138 122 120 125 129 124 117 119 110 101 96 95 93 88 82 85 91 84 83 83 82 80 79 83 91 98 104 103 98 94 94 97 101 101 100 100 102 100 96 91 106 105 113
39 49 17 34 108 157 136 124 125 129 136 131 123 119 109 102 96 94 95 91 87 82 85 87 83 83 82 81 82 82 84 90 93 95 90 91 94 97 102 103 102 104 104 104 107 116 103 106 108
62 346 350 19 135 148 147 118 130 137 141 136 127 121 114 107 100 99 97 95 91 83 86 86 87 85 82 81 85 86 86 85 88 90 91 93 97 96 96 100 104 104 104 105 106 111 133 98 108
179 343 14 3 137 143 147 136 132 138 138 146 136 137 130 117 112 103 101 96 92 87 80 86 83 82 87 85 85 88 85 88 89 88 90 89 91 90 89 90 99 95 94 110 114 124 121 101 111
168 101 59 59 139 139 138 115 123 137 145 145 143 145 138 125 124 107 100 99 94 92 85 81 84 80 89 85 83 86 90 86 90 94 94 87 90 94 93 93 94 94 89 97 120 122 114 106 111
170 104 81 110 128 155 153 143 133 149 159 154 146 164 133 120 122 117 104 104 104 95 88 83 83 90 86 89 88 87 89 89 86 91 91 89 91 98 97 101 102 96 89 91 117 109 111 110 110
188 132 100 117 150 163 157 155 138 150 152 151 150 152 146 126 128 131 125 114 107 98 91 87 84 84 91 92 89 89 90 89 87 88 92 94 97 102 102 97 99 92 91 97 105 107 107 106 106
192 172 172 140 156 176 176 166 150 150 152 146 163 157 155 137 135 123 129 122 116 106 98 96 89 87 86 97 92 92 99 92 93 92 96 97 101 104 98 99 98 93 98 103 105 108 108 103 105
195 185 172 173 135 186 181 176 168 155 150 148 149 159 153 143 148 136 147 138 125 123 107 101 97 92 88 88 97 102 101 103 97 95 97 104 101 99 99 102 102 99 102 111 114 113 108 107 108
192 200 208 184 167 198 184 155 189 160 137 144 157 163 166 161 155 151 148 146 138 130 120 106 106 99 96 94 92 99 103 109 102 102 100 102 103 108 105 105 107 105 104 108 110 107 106 107 114
200 209 186 179 163 178 165 178 165 168 157 149 166 163 170 172 169 160 150 152 143 139 133 117 108 104 103 105 93 91 97 100 111 104 107 106 113 114 112 108 106 103 103 107 108 109 107 111 118
181 182 178 172 192 182 163 176 177 172 184 165 162 160 168 174 176 167 163 161 151 151 146 126 109 111 112 108 102 98 102 107 107 106 104 108 106 109 112 114 114 109 108 105 102 107 110 112 122
185 184 184 192 195 194 185 198 178 179 177 173 164 159 162 172 176 179 177 167 162 155 153 135 123 119 116 121 123 112 107 109 117 119 114 111 105 109 115 124 128 123 123 120 113 108 111 117 124
191 203 208 198 184 209 200 203 186 172 169 178 171 166 173 173 179 183 185 175 172 164 157 150 134 131 125 116 128 125 120 113 108 114 121 124 119 112 119 131 135 128 129 130 123 117 114 123 129
207 211 216 230 227 227 240 252 236 168 178 183 178 180 172 184 181 185 184 183 178 168 163 157 152 139 139 132 123 140 130 118 113 117 126 134 131 122 123 131 133 129 132 131 130 126 128 130 137
214 216 213 213 221 232 239 219 186 169 169 177 174 177 193 183 175 175 188 182 185 180 174 162 166 167 160 158 147 130 138 139 126 131 134 139 142 144 139 135 133 128 133 145 145 150 139 138 143
218 218 217 210 217 230 244 230 186 169 174 175 175 173 178 192 182 171 188 188 187 191 191 179 175 180 180 161 182 165 141 135 150 153 159 152 153 156 161 159 153 144 146 150 138 137 145 145 153
218 221 220 218 220 229 233 238 197 180 178 164 163 175 172 189 201 183 183 194 188 189 192 193 190 191 187 181 185 192 181 162 178 189 183 183 175 166 162 172 175 165 153 154 150 146 150 152 153
215 221 223 223 224 224 230 249 179 167 191 181 194 185 182 190 186 198 197 192 185 195 191 191 200 202 201 193 203 200 199 194 189 197 187 192 201 192 184 163 172 188 179 166 167 172 168 160 158
212 218 223 227 224 227 233 232 221 184 184 200 211 205 220 206 199 196 209 200 185 175 190 199 200 206 209 204 209 214 215 208 200 206 208 199 200 206 206 202 192 188 186 190 188 186 180 174 177
210 215 221 225 226 228 231 224 219 216 222 217 221 214 204 200 213 205 207 177 186 181 186 199 215 218 211 212 211 216 219 219 217 217 222 219 213 217 214 213 209 210 204 200 189 199 191 186 194
215 216 223 227 229 228 231 226 213 227 239 239 238 239 230 207 208 206 205 212 220 238 225 207 223 226 230 220 220 221 215 220 223 222 232 223 216 218 223 218 216 212 215 217 212 203 205 194 200
215 217 222 229 235 231 228 235 224 226 235 240 239 225 214 220 214 209 206 209 219 226 216 222 226 226 234 233 227 232 231 224 230 232 231 234 236 219 228 223 225 223 221 223 222 216 213 210 209
215 217 220 227 233 234 236 237 229 229 221 225 222 207 208 213 220 211 211 213 215 213 230 231 232 226 232 235 233 234 229 229 235 235 236 231 239 231 233 233 230 233 232 230 230 228 225 223 220
215 216 217 224 233 237 242 239 232 226 219 224 214 203 211 218 219 218 222 218 214 211 213 228 226 231 244 241 243 239 232 234 228 237 235 234 237 243 250 251 245 246 239 235 235 238 237 235 231
217 217 219 224 231 235 239 244 233 224 220 219 222 215 222 226 224 220 218 215 208 211 217 232 229 240 243 235 246 248 234 231 227 231 237 233 234 240 239 234 244 246 253 254 248 243 243 241 240